Miscellaneous Local Product
Issued by NWS Hastings, NE

Home | Current Version | Previous Version | Graphics & Text | Print | Product List | Glossary On
Versions: 1 2 3 4 5 6 7 8 9 10 11 12 13 14 15 16 17 18 19 20 21 22 23 24 25 26 27 28 29 30 31 32 33 34 35 36 37 38 39 40 41 42 43 44 45 46 47 48 49 50
000
AXUS43 KGID 230410
MISGRI

GID CWA HOURLY WEATHER ROUNDUP
NATIONAL WEATHER SERVICE HASTINGS NE
1100 PM CDT MON SEP 22 2014

NOTE: "FAIR" INDICATES FEW OR NO CLOUDS BELOW 12,000 FEET WITH NO
SIGNIFICANT WEATHER AND/OR OBSTRUCTIONS TO VISIBILITY.

...SOUTH CENTRAL NEBRASKA...

CITY           SKY/WX    TMP DP  RH WIND       PRES   REMARKS
GRAND ISLAND   CLOUDY    64  49  57 S7        30.18R
HASTINGS       CLOUDY    64  46  52 SE7       30.17R
KEARNEY        CLOUDY    59  54  82 E10       30.15F
ORD            CLOUDY    59  55  87 S8        30.12F
YORK           CLOUDY    64  50  59 S8        30.18S
AURORA         CLOUDY    63  48  58 SE6       30.17S
LEXINGTON      LGT RAIN  58  56  92 SE13      30.10F
HOLDREGE       LGT RAIN  60  53  77 CALM      30.14S
HEBRON         CLOUDY    62  48  60 SE7       30.17F

...NEBRASKA PANHANDLE...

CITY           SKY/WX    TMP DP  RH WIND       PRES   REMARKS
CHADRON        PTCLDY    61  55  81 NW6       29.97F
ALLIANCE       CLEAR     55  52  89 S9        30.03F
SCOTTSBLUFF    PTCLDY    57  56  96 SE6       30.04F
SIDNEY         MOCLDY    60  56  86 NW6       30.08F

...WESTERN AND NORTH CENTRAL NEBRASKA...

CITY           SKY/WX    TMP DP  RH WIND       PRES   REMARKS
VALENTINE      CLOUDY    63  54  72 S23G32    30.03F
AINSWORTH      CLOUDY    58  55  89 S13G21    30.07F
ONEILL         CLOUDY    63  55  77 S9        30.13F
BROKEN BOW     CLOUDY    59  54  83 SE10      30.11S
IMPERIAL       CLOUDY    62  53  72 S14       30.06R
NORTH PLATTE   CLOUDY    59  52  77 SE9       30.07S
MCCOOK         LGT RAIN  61  55  81 SE15G28   30.10F

...EASTERN NEBRASKA...

CITY           SKY/WX    TMP DP  RH WIND       PRES   REMARKS
NORFOLK        LGT RAIN  64  50  60 SE10      30.15S
SO SIOUX CITY  MOCLDY    56  51  84 SE7       30.17S
TEKAMAH        MOCLDY    56  52  86 S3        30.18S
COLUMBUS       CLOUDY    63  50  63 S6        30.18S
ALBION         LGT RAIN  60  53  76 S5        30.16R
OMAHA EPPLEY   CLOUDY    62  51  67 SE8       30.19S
OFFUTT AFB     CLOUDY    59  58  98 E5        30.19S
MILLARD        CLOUDY    63  52  67 SE5       30.19S
LINCOLN        CLOUDY    63  51  65 S12       30.19F
NEBRASKA CITY    N/A     59  46  63 S6        30.21R
BEATRICE       CLOUDY    61  50  66 SE5       30.19F
FALLS CITY     MOCLDY    60  52  74 S6        30.20S

...NORTHERN KANSAS...

CITY           SKY/WX    TMP DP  RH WIND       PRES   REMARKS
GOODLAND       CLOUDY    61  57  87 N15G33    30.14R
HILL CITY      CLOUDY    68  47  46 S10       30.12S
NORTON         MOCLDY    64  43  45 SE12      30.10F
PHILLIPSBURG   PTCLDY    66  46  48 E7        30.13F
SMITH CENTER   CLOUDY    64  46  52 SE15      30.15S
BELOIT         CLEAR     66  48  52 SE13G18   30.14F
HAYS           CLOUDY    68  45  42 S14       30.14F
RUSSELL        CLOUDY    66  47  50 SE13      30.14S
CONCORDIA      MOCLDY    62  51  67 SE9       30.17F
SALINA         MOCLDY    65  49  56 SE12      30.18F
TOPEKA         MOCLDY    59  53  80 CALM      30.22S



USA.gov is the U.S. government's official web portal to all federal, state and local government web resources and services.